Tracking 35055 objects as of 19-Aug-2026
HD Live streaming from Space Station
objects crossing your sky now

STARLINK-5766

Track STARLINK-5766 now!
10-day predictions
STARLINK-5766 is classified as:


NORAD ID: 56025
Int'l Code: 2023-042AR
Launch date: March 24, 2022
Source: United States (US)
Launch site: AIR FORCE EASTERN TEST RANGE (AFETR)
Your satellite tracking list
Your tracking list is empty




NASA's NSSDC Master Catalog

Two Line Element Set (TLE):
1 56025U 23042AR  26230.93033335  .00000049  00000-0  11300-4 0  9993
2 56025  43.0039 209.3540 0001465 289.7894  70.2800 15.27577808187840
Source of the keplerian elements: AFSPC